Location: ????????
(60.3455°N, 46.5871°E)
Time: 00:44:42
(UTC+00:00)

Daily predictions for brighter satellites

Satellite Brightness Start Highest point End
(mag) Time Altitude Azimuth Time Altitude Azimuth Time Altitude Azimuth
CZ-2C R/B 4.4 00:00:22 10° NNE 00:03:45 31° E 00:07:08 10° SSE
Cosmos 2181 Rocket 4.2 00:03:06 29° SW 00:06:10 53° WNW 00:12:16 10° N
Cosmos 1302 Rocket 4.3 00:04:14 30° WSW 00:06:35 53° NW 00:11:45 10° NNE
IDEFIX/ARIANE 42P 3.1 00:02:29 10° NNE 00:07:43 58° ESE 00:12:53 10° S
SL-08 R/B 3.6 00:08:14 30° SSW 00:10:02 43° W 00:14:30 10° NNW
Cosmos 405 2.9 00:09:08 45° SW 00:10:03 70° WNW 00:13:35 10° NNE
IRS-1C 4.1 00:05:22 10° NNE 00:10:46 85° ESE 00:14:41 19° SSW
Cosmos 1633 Rocket 3.5 00:06:43 10° NNW 00:10:48 40° W 00:11:56 33° SW
CZ-4B R/B 3.4 00:10:03 10° ESE 00:12:53 30° ENE 00:15:48 10° N
SL-16 R/B 3.8 00:12:20 20° W 00:13:01 20° W 00:17:26 10° NW
Cosmos 220 Rocket 4.0 00:11:33 29° SSW 00:13:40 78° ESE 00:17:57 10° NE
Cosmos 1933 Rocket 3.4 00:10:53 10° NNW 00:15:17 74° W 00:19:38 10° S
Cosmos 1666 Rocket 4.3 00:11:48 10° NNW 00:15:49 33° W 00:16:42 30° WSW
ARIANE 5 R/B 2.6 00:12:08 10° NNE 00:17:19 78° ESE 00:21:31 15° SSW
Cosmos 2369 4.5 00:12:45 14° S 00:17:31 49° ESE 00:23:01 10° NE
Cosmos 1356 3.3 00:14:13 10° NNW 00:17:41 82° WSW 00:21:09 10° SSE
Cosmos 1328 Rocket 3.6 00:14:40 20° S 00:17:45 85° ESE 00:22:15 10° NNE
IRS-1D 3.7 00:12:51 10° NNE 00:18:09 62° WNW 00:21:19 24° SW
CZ-2D R/B 2.8 00:13:13 10° N 00:18:12 39° NW 00:20:44 24° WSW
Cosmos 1937 Rocket 4.0 00:13:42 10° NNW 00:18:52 61° NE 00:23:58 10° SE
AQUA 4.4 00:16:37 10° N 00:21:06 42° WNW 00:23:15 26° WSW
Cosmos 1943 Rocket 3.7 00:17:27 10° WNW 00:22:20 29° N 00:27:11 10° NE
Cosmos 2228 Rocket 4.4 00:18:24 10° SSE 00:22:30 39° E 00:26:38 10° NNE
NPP 4.3 00:19:05 10° NNE 00:24:08 41° WNW 00:26:59 23° WSW
Cosmos 1606 2.9 00:24:11 32° SW 00:25:37 51° WNW 00:29:20 10° N
COSMOS 2455 3.8 00:20:23 10° WNW 00:26:14 46° N 00:32:03 10° E
Cosmos 1151 Rocket 2.9 00:23:47 22° SSW 00:26:35 79° WNW 00:30:58 10° NNE
ATLAS 5 CENTAUR R/B 1.7 00:26:24 27° WSW 00:28:54 89° SE 00:34:07 10° ENE
Cosmos 2297 Rocket 3.8 00:26:31 10° WNW 00:28:49 16° W 00:28:49 16° W
CBERS-1 4.3 00:25:29 10° NNE 00:30:28 54° WNW 00:33:37 22° SW
Resurs 1-4 Rocket 3.1 00:27:27 10° N 00:32:07 33° NW 00:34:54 20° W
Cosmos 1869 Rocket 3.6 00:29:50 10° NNW 00:34:15 82° ENE 00:38:36 10° SSE
Cosmos 1536 4.1 00:31:59 10° N 00:35:56 44° ENE 00:39:52 10° SE
NOSS 4 (H) 4.4 00:36:04 20° WNW 00:37:59 77° SSW 00:41:08 10° ESE
NOSS 3-4 (A) 3.7 00:32:55 10° WNW 00:39:32 78° SSW 00:46:56 10° SE
NOSS 3-4 (C) 3.7 00:33:01 10° WNW 00:39:38 78° SSW 00:47:03 10° SE
CZ-4C R/B 3.1 00:36:28 10° S 00:40:02 54° WSW 00:43:33 10° NNW
Genesis I 3.1 00:38:06 26° WSW 00:40:13 80° NNW 00:44:07 10° ENE
Cosmos 1933 3.6 00:42:24 21° SW 00:44:56 52° WNW 00:48:57 10° N
Cosmos 2369 Rocket 3.7 00:41:33 10° WNW 00:46:30 30° N 00:51:29 10° NE
Meteor 1-26 Rocket 4.1 00:41:54 10° SSW 00:47:20 86° WNW 00:52:48 10° NNE
CZ-2D R/B 3.4 00:44:01 10° NNE 00:48:10 78° WNW 00:52:05 12° SSW
RESURS DK-1 4.4 00:44:47 10° NW 00:48:20 26° NNE 00:51:53 10° ENE
USA 267 3.7 00:43:07 10° E 00:49:30 51° SSE 00:54:57 14° SW
IRS-P3 4.3 00:44:37 10° NNE 00:49:52 56° WNW 00:54:12 15° SW
SJ 16-02 1.4 00:45:52 10° NW 00:50:12 56° WSW 00:54:29 10° S
ASTEX 1 3.5 00:46:28 10° N 00:51:26 63° WNW 00:56:22 10° SSW
PSLV R/B 4.5 00:48:32 10° NNE 00:52:40 48° E 00:56:44 10° S
CZ-4C R/B 2.9 00:48:15 10° WNW 00:54:35 78° NNE 01:02:16 10° ESE
CZ-2C R/B 3.3 00:50:30 10° NNE 00:55:28 53° E 01:00:31 10° S
Cosmos 1459 Rocket 4.5 00:49:27 10° N 00:55:36 65° ENE 01:01:38 10° SSE
NOSS 2-1 (E) 3.5 00:53:13 19° W 00:55:47 67° NNW 01:00:23 10° ENE
Cosmos 1697 Rocket 2.8 00:50:48 13° SSW 00:55:53 82° SE 01:01:33 10° NE
Cosmos 2278 Rocket 3.7 00:51:14 10° NW 00:56:30 37° NNE 01:01:44 10° E
Cosmos 1844 4.2 00:51:44 10° NW 00:57:20 64° NE 01:02:52 10° SE
PAYLOAD A 4.5 00:52:57 10° NNE 00:57:41 57° ESE 01:02:18 10° S
COSMOS 2441 4.5 00:52:50 10° NNE 00:57:47 84° ESE 01:02:43 10° SSW
Cosmos 1980 Rocket 2.7 00:54:25 10° SSW 01:00:00 59° ESE 01:05:34 10° NE
Cosmos 2263 Rocket 2.4 00:56:12 10° NW 01:01:34 46° WSW 01:06:55 10° S
Cosmos 389 Rocket 2.4 00:58:37 10° SSW 01:02:09 87° WNW 01:05:47 10° NNE
H-2A R/B 2.5 00:58:22 10° S 01:02:34 42° W 01:06:52 10° NNW
Cosmos 1689 Rocket 3.5 01:00:37 10° SE 01:03:27 41° ENE 01:06:18 10° N
Cosmos 990 Rocket 4.0 00:58:25 10° NW 01:03:32 60° WSW 01:08:38 10° SSE
ATLAS 2AS CENTAUR R/B 2.9 00:55:49 10° WNW 01:03:34 74° SW 01:10:44 10° SE
Cosmos 2322 Rocket 4.4 01:01:22 10° SSE 01:05:52 25° ESE 01:10:23 10° NE
ERS-2 2.3 01:04:42 10° S 01:08:16 47° WSW 01:11:51 10° NNW
Cosmos 1844 Rocket 2.9 01:03:02 10° NW 01:08:43 79° NE 01:14:23 10° SE
Iridium 2 3.7 01:05:15 10° SSW 01:08:58 56° WNW 01:12:42 10° N
Cosmos 1818 3.7 01:05:33 15° WSW 01:10:08 76° NNW 01:15:39 10° ENE
SL-16 R/B 4.0 01:08:21 10° S 01:13:14 31° ESE 01:18:10 10° NE
Spot 4 Rocket 4.1 01:08:13 10° NNE 01:13:20 63° WNW 01:18:25 10° SW
Exosat Rocket 4.4 01:14:38 10° NW 01:20:05 68° NE 01:27:21 10° SE
Meteor 1-5 Rocket 4.3 01:17:05 10° NNW 01:22:09 47° W 01:27:14 10° SSW
Cosmos 972 4.4 01:17:23 10° SSW 01:22:22 85° ESE 01:27:18 10° NNE
Cosmos 1500 3.9 01:19:25 10° NNW 01:22:55 33° W 01:26:23 10° SSW
USA 308 4.5 01:19:34 10° SW 01:23:06 26° SSE 01:26:38 10° ESE
Cosmos 2298 Rocket 4.5 01:18:34 10° NNW 01:23:55 69° NE 01:29:13 10° SE
Cosmos 1812 2.7 01:20:15 10° S 01:24:06 87° ESE 01:28:00 10° NNE
COSMO-SKYMED 1 3.1 01:20:38 10° SSE 01:24:57 67° ENE 01:29:18 10° NNW
Cosmos 2173 Rocket 4.1 01:19:20 10° NNW 01:25:40 88° WSW 01:32:03 10° S
USA-17 4.5 01:23:39 10° WNW 01:26:49 82° NNE 01:30:39 10° ESE
IRIDIUM 104 4.4 01:22:36 10° NNW 01:27:43 55° W 01:32:48 10° SSW
Meteor 2-6 Rocket 4.3 01:22:10 10° SSW 01:27:53 88° WNW 01:33:50 10° NNE
Cosmos 1666 2.8 01:25:10 10° NNW 01:28:56 53° W 01:32:40 10° S
Cosmos 1898 Rocket 3.8 01:26:33 10° NW 01:31:31 44° WSW 01:36:28 10° S
ADEOS Rocket 3.2 01:25:05 10° S 01:31:37 56° W 01:37:33 10° NNW
EP 3 3.8 01:32:06 14° W 01:33:41 59° NNW 01:35:49 10° ENE
ADEOS II 3.3 01:29:30 10° N 01:33:51 27° NW 01:38:11 10° WSW
Cosmos 2061 Rocket 4.3 01:28:04 10° NNW 01:34:32 79° ENE 01:41:00 10° SSE
Cosmos 1544 4.2 01:32:22 10° N 01:35:55 50° ENE 01:39:26 10° SSE
Cosmos 1656 4.1 01:30:38 10° WSW 01:35:58 50° NW 01:41:25 10° NE
Lacrosse 5 2.7 01:33:22 10° SW 01:38:10 44° SSE 01:42:59 10° E
Cosmos 1908 Rocket 4.4 01:33:52 10° N 01:38:17 57° ENE 01:42:41 10° SSE
CZ-2C R/B 3.2 01:34:45 10° N 01:38:18 42° WNW 01:41:52 10° SW
deb Chang Zheng 4 4.2 01:34:18 10° NNE 01:38:37 61° ESE 01:42:52 10° S
Cosmos 1782 3.6 01:35:13 10° SW 01:38:57 35° WNW 01:42:41 10° N
USA 32 4.1 01:35:54 10° NNW 01:41:04 58° W 01:46:13 10° S
MSX 4.0 01:35:31 10° NNE 01:41:12 56° WNW 01:46:49 10° SW
Cosmos 1515 Rocket 4.3 01:38:55 10° SW 01:43:02 35° WNW 01:47:08 10° N
ADEOS 4.0 01:37:55 10° NNE 01:43:10 68° ESE 01:48:22 10° S
CZ-4B R/B 1.9 01:42:11 10° SSW 01:45:08 34° W 01:48:10 10° NNW
NOSS 7 (E) 4.5 01:42:11 10° WNW 01:45:21 85° NNE 01:49:12 10° ESE
Cosmos 972 Rocket 4.3 01:41:16 10° SW 01:45:59 47° NW 01:50:52 10° NNE
Meteor 1-11 Rocket 4.0 01:41:09 10° NNW 01:46:46 48° W 01:52:14 10° SSW
IDEFIX/ARIANE 42P 3.2 01:42:20 10° N 01:47:12 39° WNW 01:52:04 10° WSW
NOSS 2-1 (C) 3.9 01:45:24 10° W 01:49:05 57° N 01:53:52 10° E
Cosmos 372 Rocket 4.0 01:44:14 10° NW 01:49:25 70° WSW 01:54:31 10° SSE
